TimeEDT,TemperatureF,Dew PointF,Humidity,Sea Level PressureIn,VisibilityMPH,Wind Direction,Wind SpeedMPH,Gust SpeedMPH,PrecipitationIn,Events,Conditions,WindDirDegrees,DateUTC
12:17 AM,64.4,64.4,100,29.83,10.0,Calm,Calm,-,0.00,,Overcast,0,2013-08-31 04:17:00
12:52 AM,64.9,64.0,97,29.80,6.0,Calm,Calm,-,0.00,,Mostly Cloudy,0,2013-08-31 04:52:00
1:32 AM,64.4,64.4,100,29.80,5.0,Calm,Calm,-,N/A,,Partly Cloudy,0,2013-08-31 05:32:00
1:52 AM,64.0,63.0,96,29.79,2.5,Calm,Calm,-,N/A,,Partly Cloudy,0,2013-08-31 05:52:00
2:03 AM,64.4,64.4,100,29.81,4.0,Calm,Calm,-,N/A,,Scattered Clouds,0,2013-08-31 06:03:00
2:09 AM,64.4,64.4,100,29.80,2.5,Calm,Calm,-,N/A,,Mostly Cloudy,0,2013-08-31 06:09:00
2:23 AM,64.4,64.4,100,29.80,3.0,Calm,Calm,-,N/A,,Mostly Cloudy,0,2013-08-31 06:23:00
2:52 AM,64.0,63.0,96,29.80,6.0,Calm,Calm,-,N/A,,Mostly Cloudy,0,2013-08-31 06:52:00
3:15 AM,62.6,62.6,100,29.80,2.0,Calm,Calm,-,N/A,,Mostly Cloudy,0,2013-08-31 07:15:00
3:27 AM,62.6,62.6,100,29.80,4.0,Calm,Calm,-,N/A,,Mostly Cloudy,0,2013-08-31 07:27:00
3:52 AM,63.0,62.1,97,29.79,8.0,Calm,Calm,-,N/A,,Overcast,0,2013-08-31 07:52:00
4:32 AM,62.6,62.6,100,29.81,1.8,Calm,Calm,-,N/A,,Overcast,0,2013-08-31 08:32:00
4:37 AM,62.6,62.6,100,29.81,0.8,Calm,Calm,-,N/A,,Overcast,0,2013-08-31 08:37:00
4:45 AM,62.6,62.6,100,29.81,0.2,Calm,Calm,-,N/A,Fog,Fog,0,2013-08-31 08:45:00
4:52 AM,63.0,62.1,97,29.80,0.2,Calm,Calm,-,N/A,Fog,Fog,0,2013-08-31 08:52:00
5:26 AM,62.6,62.6,100,29.81,0.2,Calm,Calm,-,N/A,Fog,Fog,0,2013-08-31 09:26:00
5:38 AM,62.6,62.6,100,29.82,0.2,Calm,Calm,-,N/A,Fog,Fog,0,2013-08-31 09:38:00
5:52 AM,63.0,63.0,100,29.80,0.2,Calm,Calm,-,N/A,Fog,Fog,0,2013-08-31 09:52:00
6:04 AM,62.6,62.6,100,29.82,0.8,Calm,Calm,-,N/A,,Mist,0,2013-08-31 10:04:00
6:38 AM,62.6,62.6,100,29.82,0.2,Calm,Calm,-,N/A,Fog,Fog,0,2013-08-31 10:38:00
6:52 AM,63.0,63.0,100,29.82,0.2,Calm,Calm,-,N/A,Fog,Fog,0,2013-08-31 10:52:00
6:58 AM,62.6,62.6,100,29.83,1.0,Calm,Calm,-,N/A,,Mist,0,2013-08-31 10:58:00
7:07 AM,62.6,62.6,100,29.83,0.2,Calm,Calm,-,N/A,Fog,Fog,0,2013-08-31 11:07:00
7:19 AM,62.6,62.6,100,29.84,0.5,Calm,Calm,-,N/A,Fog,Fog,0,2013-08-31 11:19:00
7:49 AM,62.6,62.6,100,29.83,0.2,Calm,Calm,-,N/A,Fog,Fog,0,2013-08-31 11:49:00
7:52 AM,64.0,63.0,96,29.83,0.2,Calm,Calm,-,N/A,Fog,Fog,0,2013-08-31 11:52:00
8:05 AM,64.4,64.4,100,29.83,0.5,Calm,Calm,-,N/A,Fog,Fog,0,2013-08-31 12:05:00
8:19 AM,64.4,64.4,100,29.83,1.2,Calm,Calm,-,N/A,,Overcast,0,2013-08-31 12:19:00
8:24 AM,64.4,64.4,100,29.83,2.0,Calm,Calm,-,N/A,,Overcast,0,2013-08-31 12:24:00
8:32 AM,64.4,64.4,100,29.83,6.0,Calm,Calm,-,N/A,,Overcast,0,2013-08-31 12:32:00
8:52 AM,66.0,64.9,96,29.83,10.0,Calm,Calm,-,N/A,,Mostly Cloudy,0,2013-08-31 12:52:00
9:00 AM,68.0,66.2,94,29.84,10.0,Calm,Calm,-,N/A,,Scattered Clouds,0,2013-08-31 13:00:00
9:52 AM,72.0,66.0,81,29.84,10.0,Calm,Calm,-,N/A,,Overcast,0,2013-08-31 13:52:00
10:52 AM,75.0,64.9,71,29.82,10.0,Calm,Calm,-,N/A,,Overcast,0,2013-08-31 14:52:00
11:52 AM,77.0,64.9,66,29.81,10.0,Calm,Calm,-,N/A,,Mostly Cloudy,0,2013-08-31 15:52:00
12:52 PM,79.0,64.0,60,29.80,10.0,Calm,Calm,-,N/A,,Overcast,0,2013-08-31 16:52:00
1:52 PM,79.0,64.9,62,29.79,10.0,Calm,Calm,-,N/A,,Overcast,0,2013-08-31 17:52:00
2:52 PM,78.1,66.0,66,29.79,10.0,Calm,Calm,-,N/A,,Overcast,0,2013-08-31 18:52:00
3:52 PM,73.9,64.9,73,29.80,10.0,SW,9.2,-,0.04,,Overcast,220,2013-08-31 19:52:00
4:52 PM,72.0,66.0,81,29.80,9.0,Calm,Calm,-,0.00,,Overcast,0,2013-08-31 20:52:00
5:52 PM,70.0,68.0,93,29.80,4.0,North,3.5,-,0.01,Rain,Light Rain,10,2013-08-31 21:52:00
6:35 PM,69.8,68.0,94,29.81,7.0,Calm,Calm,-,0.00,,Overcast,0,2013-08-31 22:35:00
6:52 PM,70.0,68.0,93,29.81,6.0,Calm,Calm,-,0.00,,Overcast,0,2013-08-31 22:52:00
7:04 PM,69.8,68.0,94,29.81,6.0,Calm,Calm,-,N/A,,Overcast,0,2013-08-31 23:04:00
7:50 PM,68.0,66.2,94,29.82,4.0,Calm,Calm,-,N/A,,Overcast,0,2013-08-31 23:50:00
7:52 PM,69.1,66.9,93,29.82,4.0,Calm,Calm,-,N/A,,Overcast,0,2013-08-31 23:52:00
8:08 PM,68.0,66.2,94,29.83,4.0,Calm,Calm,-,N/A,,Overcast,0,2013-09-01 00:08:00
8:52 PM,69.1,66.9,93,29.82,5.0,Calm,Calm,-,N/A,,Overcast,0,2013-09-01 00:52:00
9:52 PM,68.0,66.9,96,29.81,4.0,Calm,Calm,-,N/A,,Mostly Cloudy,0,2013-09-01 01:52:00
10:05 PM,68.0,66.2,94,29.82,4.0,Calm,Calm,-,N/A,,Mostly Cloudy,0,2013-09-01 02:05:00
10:29 PM,68.0,66.2,94,29.82,5.0,NE,3.5,-,N/A,,Overcast,40,2013-09-01 02:29:00
10:52 PM,68.0,66.9,96,29.80,4.0,Calm,Calm,-,N/A,,Mostly Cloudy,0,2013-09-01 02:52:00
11:10 PM,66.2,64.4,94,29.82,3.0,SE,4.6,-,N/A,,Scattered Clouds,140,2013-09-01 03:10:00
11:23 PM,66.2,66.2,100,29.82,4.0,SE,5.8,-,N/A,,Mostly Cloudy,140,2013-09-01 03:23:00
11:52 PM,68.0,66.0,93,29.80,4.0,Calm,Calm,-,N/A,,Overcast,0,2013-09-01 03:52:00